Location: Izdebno
(52.6670°N, 16.2170°E)
Time: 09:41:53
(UTC+01:00)

Vanguard 2 Rocket - Visible Passes

Search period start: 26 February 2024 00:00
Search period end: 07 March 2024 00:00
Orbit: 554 x 3310 km, 32.9° (Epoch: 25 February)

Date Brightness Start Highest point End Pass type
(mag) Time Alt. Az. Time Alt. Az. Time Alt. Az.
26 Feb 10.5 18:07:57 10° WSW 18:19:25 29° SSW 18:34:23 10° SE visible
26 Feb 10.9 20:24:24 10° WSW 20:33:31 17° SW 20:43:37 10° S visible
27 Feb 10.8 19:20:32 10° WSW 19:30:48 21° SSW 19:43:07 10° S visible
28 Feb 10.7 18:17:48 10° WSW 18:28:04 24° SSW 18:41:16 10° SSE visible
28 Feb 11.1 20:38:41 10° SW 20:41:51 11° SW 20:45:09 10° SSW visible
29 Feb 11.0 19:31:47 10° WSW 19:39:19 15° SSW 19:47:57 10° S visible
01 Mar 10.9 18:28:14 10° WSW 18:36:44 19° SSW 18:47:17 10° S visible
03 Mar 11.0 18:40:10 10° SW 18:45:26 13° SSW 18:51:26 10° S visible
